User: anonymous   Login
Location: Unspecified
(0.0000°N, 0.0000°E)
Time: 00:21:12
(UTC+00:00)
Language:

USA 223 - Orbit

View from above orbital plane
View from above orbital plane
View from above satellite
View from above satellite

Ground track
Ground track

The orbit data is extracted from the following two-line orbital elements,

1 37232U 10063A   17017.95566895 0.00000000  00000-0  00000-0 0    09
2 37232   2.9982 197.0138 0050746  79.5223 281.0367  1.00270000    05
Epoch (UTC): 17 January 2017 22:56:09
Eccentricity: 0.0050746
inclination: 2.9982°
perigee height: 35573 km
apogee height: 36000 km
right ascension of ascending node: 197.0138°
argument of perigee: 79.5223°
revolutions per day: 1.00270000
mean anomaly at epoch: 281.0367°
orbit number at epoch: 0

The dashed part of the orbit path shows where the satellite is in the earth's shadow,  

DLR